Location: Fort Wayne
(41.1310°N, 85.1290°W)
Time: 15:22:35
(UTC-05:00)

Gbstr 26 Del rocket - Visible Passes

Search period start: 04 December 2016 00:00
Search period end: 14 December 2016 00:00
Orbit: 493 x 1266 km, 51.8° (Epoch: 03 December)

Date Brightness Start Highest point End Pass type
(mag) Time Alt. Az. Time Alt. Az. Time Alt. Az.
04 Dec 5.9 04:26:07 15° E 04:26:07 15° E 04:26:57 10° E visible
04 Dec 3.8 06:08:43 33° WSW 06:09:25 35° SW 06:13:11 10° SSE visible
05 Dec 6.1 04:22:32 12° ESE 04:22:32 12° ESE 04:22:53 10° ESE visible
05 Dec 4.2 06:05:09 27° SW 06:05:09 27° SW 06:08:36 10° S visible
06 Dec 4.7 06:01:39 19° SW 06:01:39 19° SW 06:03:51 10° S visible
06 Dec 6.4 20:50:36 10° SSW 20:52:00 16° SSW 20:52:00 16° SSW visible
07 Dec 5.3 05:58:12 12° SSW 05:58:12 12° SSW 05:58:53 10° SSW visible
07 Dec 6.2 19:03:55 10° SE 19:06:06 13° SE 19:06:06 13° SE visible
07 Dec 6.1 20:46:02 10° SSW 20:48:43 22° SSW 20:48:43 22° SSW visible
08 Dec 5.9 18:58:03 10° SSE 19:02:46 17° ESE 19:02:46 17° ESE visible
08 Dec 5.7 20:41:33 10° SW 20:45:23 30° SSW 20:45:23 30° SSW visible
09 Dec 5.6 18:52:40 10° S 18:58:21 21° SE 18:59:23 21° ESE visible
09 Dec 5.3 20:37:08 10° SW 20:42:00 40° SW 20:42:00 40° SW visible
10 Dec 5.4 18:47:33 10° S 18:53:56 26° SE 18:55:56 24° ESE visible
10 Dec 5.0 20:32:48 10° SW 20:38:33 50° SW 20:38:33 50° SW visible
11 Dec 5.3 18:42:37 10° S 18:49:32 32° SE 18:52:25 25° E visible
11 Dec 4.8 20:28:32 10° SW 20:35:01 60° WSW 20:35:01 60° WSW visible
11 Dec 7.0 22:17:37 10° W 22:17:37 10° W 22:17:37 10° W visible
12 Dec 5.1 18:37:49 10° SSW 18:45:09 38° SE 18:48:50 25° E visible
12 Dec 4.6 20:24:20 10° WSW 20:31:25 66° W 20:31:25 66° W visible
12 Dec 6.9 22:13:39 10° W 22:14:01 11° W 22:14:01 11° W visible
13 Dec 4.9 18:33:09 10° SSW 18:40:47 46° SE 18:45:10 24° ENE visible
13 Dec 4.6 20:20:11 10° WSW 20:27:45 65° NW 20:27:45 65° NW visible
13 Dec 6.9 22:09:40 10° WNW 22:10:21 12° WNW 22:10:21 12° WNW visible
